This is the latest recevied weather packets stored in our database for station/object VE3DVC. If no packets are shown the sender has not sent any weather packets the latest 10 day(s).
| Time | Temp. | Humidity | Pressure | Rain* | Wind** | Luminosity | Snow |
|---|---|---|---|---|---|---|---|
| 1777133132 | 6.11° C | 92% | 1010.9 hPa | 0 mm | - | - | - |
| 1777132414 | 6.11° C | 92% | 1010.6 hPa | 0 mm | - | - | - |
| 1777131693 | 6.11° C | 92% | 1010.7 hPa | 0 mm | - | - | - |
| 1777130973 | 6.11° C | 92% | 1010.6 hPa | 0 mm | - | - | - |
| 1777130253 | 6.11° C | 92% | 1010.4 hPa | 0 mm | - | - | - |
| 1777129257 | 6.11° C | 91% | 1009.9 hPa | 0 mm | - | - | - |
| 1777128540 | 6.11° C | 91% | 1009.8 hPa | 0 mm | - | - | - |
| 1777127099 | 6.11° C | 91% | 1009.6 hPa | 0 mm | - | - | - |
| 1777126378 | 6.11° C | 91% | 1009.5 hPa | 0 mm | - | - | - |
| 1777125658 | 6.11° C | 91% | 1009.1 hPa | 0 mm | - | - | - |
| 1777124617 | 5.56° C | 91% | 1009.2 hPa | 0.25 mm | - | - | - |
| 1777123897 | 5.56° C | 91% | 1009.3 hPa | 0.51 mm | - | - | - |
| 1777123177 | 5.56° C | 91% | 1009.3 hPa | 0.76 mm | - | - | - |
| 1777122457 | 5.56° C | 91% | 1009.3 hPa | 0.76 mm | - | - | - |
| 1777121737 | 5.56° C | 91% | 1009 hPa | 0.76 mm | - | - | - |
| 1777121017 | 5.56° C | 91% | 1008.8 hPa | 1.27 mm | - | - | - |
| 1777120298 | 5.56° C | 91% | 1008.8 hPa | 1.78 mm | - | - | - |
| 1777119188 | 5.56° C | 91% | 1008.6 hPa | 2.54 mm | - | - | - |
| 1777118468 | 5.56° C | 91% | 1008.5 hPa | 2.79 mm | - | - | - |
| 1777117748 | 5.56° C | 91% | 1008.4 hPa | 2.79 mm | - | - | - |
| 1777117029 | 5.56° C | 91% | 1008.2 hPa | 2.79 mm | - | - | - |
| 1777116309 | 5.56° C | 92% | 1008 hPa | 2.03 mm | - | - | - |
| 1777115589 | 5.56° C | 92% | 1008 hPa | 1.78 mm | - | - | - |
| 1777114869 | 5.56° C | 92% | 1007.7 hPa | 1.52 mm | - | - | - |
| 1777114148 | 5.56° C | 92% | 1007.7 hPa | 1.52 mm | - | - | - |
* Rain latest hour (hover to see other rain measurements)
** Current wind speed in m/s (hover to see current wind gust speed)